This demonstration page uses our WeatherBlox Daily Observations layout. Learn more.

Left ArrowRight Arrow

47.50024, -111.30081

Hourly Observations for May 21, 2022

Temp ( °F °C ) Dew Point ( °F °C ) Humidity (%) Winds ( mph kmh ) Pressure ( in mb ) Visibility ( mi km ) Precip ( " mm )
12:53 am 00:53 Clear 33 0.6 30 -1.1 89 89 NW 3 6 30.30 1026 10 16 0.00 0.00
1:53 am 01:53 Clear 31 -0.6 29 -1.7 92 92 W 6 9 30.32 1027 10 16 0.00 0.00
2:53 am 02:53 Mostly Cloudy 31 -0.6 29 -1.7 92 92 WNW 7 11 30.32 1027 10 16 0.00 0.00
3:53 am 03:53 Clear 30 -1.1 27 -2.8 88 88 W 6 9 30.32 1027 10 16 0.00 0.00
4:53 am 04:53 Mostly Clear 29 -1.7 26 -3.3 89 89 WNW 6 9 30.33 1027 10 16 0.00 0.00
5:53 am 05:53 Sunny 25 -3.9 22 -5.6 88 88 SW 7 11 30.35 1028 10 16 0.00 0.00
6:53 am 06:53 Mostly Sunny 32 0 28 -2.2 85 85 WSW 5 7 30.35 1028 10 16 0.00 0.00
7:53 am 07:53 Mostly Cloudy 37 2.8 30 -1.1 76 76 WNW 5 7 30.36 1028 10 16 0.00 0.00
8:53 am 08:53 Partly Cloudy 38 3.3 28 -2.2 68 68 NNW 5 7 30.37 1029 10 16 0.00 0.00
9:53 am 09:53 Partly Cloudy 41 5 26 -3.3 55 55 Calm 30.37 1029 10 16 0.00 0.00
10:53 am 10:53 Mostly Cloudy 41 5 24 -4.4 51 51 Calm 30.37 1029 10 16 0.00 0.00
11:53 am 11:53 Cloudy 45 7.2 24 -4.4 44 44 NNW 6 9 30.36 1028 10 16 0.00 0.00
12:53 pm 12:53 Cloudy 46 7.8 24 -4.4 42 42 VRB 3 6 30.36 1028 10 16 0.00 0.00
1:53 pm 13:53 Cloudy 46 7.8 24 -4.4 42 42 N 9 15 30.37 1028 10 16 0.00 0.00
2:53 pm 14:53 Cloudy 47 8.3 26 -3.3 44 44 NNE 7 11 30.37 1028 10 16 0.00 0.00
3:53 pm 15:53 Cloudy 46 7.8 24 -4.4 42 42 NW 5 7 30.37 1028 10 16 0.00 0.00
4:53 pm 16:53 Cloudy 46 7.8 23 -5 40 40 W 3 6 30.36 1028 10 16 0.00 0.00
5:53 pm 17:53 Mostly Cloudy 47 8.3 23 -5 39 39 Calm 30.37 1028 10 16 0.00 0.00
6:53 pm 18:53 Mostly Cloudy 46 7.8 23 -5 40 40 Calm 30.35 1028 10 16 0.00 0.00
7:53 pm 19:53 Sunny 46 7.8 24 -4.4 42 42 ESE 5 7 30.33 1027 10 16 0.00 0.00
8:53 pm 20:53 Sunny 42 5.6 25 -3.9 51 51 ENE 5 7 30.34 1027 10 16 0.00 0.00
9:53 pm 21:53 Clear 37 2.8 24 -4.4 59 59 E 6 9 30.36 1028 10 16 0.00 0.00
10:53 pm 22:53 Clear 34 1.1 25 -3.9 70 70 E 8 13 30.37 1028 10 16 0.00 0.00
11:53 pm 23:53 Clear 35 1.7 26 -3.3 70 70 ESE 6 9 30.35 1028 10 16 0.00 0.00

Powered by AerisWeather